Zurück zum Katalog

BEIDOU 10

AktivNavigationMEO
NORAD 37948·PAYLOAD·🇨🇳 China

Gestartet Dec 1, 2011 von Xichang Satellite Launch Center

Loading…

Nächste Überflüge (nächste 24 Stunden)

TLE

AktuellSource: Space-Track

Epoche: Sep 10, 2026, 19:05 UTC

1 37948U 11073A   26253.79533384 -.00000160  00000-0  00000-0 0  9991
2 37948  47.5267 270.4734 0116652 224.1508 237.2700  1.00279182 53991

Verfolge BEIDOU 10 in Echtzeit mit AllMySat

Download on the App Store